Location: Asis
(14.1331°N, 120.9056°E)
Time: 01:41:40
(UTC+00:00)

Daily predictions for brighter satellites

Satellite Brightness Start Highest point End
(mag) Time Altitude Azimuth Time Altitude Azimuth Time Altitude Azimuth
Milstar 3 4.0 09:59:02 10° WSW 10:07:14 72° NNW 10:22:53 10° ENE
IRS-1C 4.2 10:04:09 10° SSE 10:09:28 89° ENE 10:14:47 10° NNW
SJ 16-02 2.4 10:06:51 10° NNW 10:10:58 49° W 10:15:06 10° S
NOSS 3-2 (C) 4.4 10:04:50 10° NNW 10:13:31 76° ENE 10:22:57 10° SSE
Cosmos 968 Rocket 4.1 10:09:00 10° NNE 10:13:33 33° ENE 10:18:04 10° SE
SPOT 1/Viking Rocket 3.6 10:10:11 10° SSE 10:15:15 58° ENE 10:20:17 10° N
Cosmos 2297 4.4 10:11:06 10° NNW 10:16:40 60° WSW 10:22:14 10° S
Sylda 5 4.3 10:03:08 10° WSW 10:17:30 45° S 10:21:32 10° ESE
Okean 2 4.4 10:14:34 10° SSW 10:18:18 47° W 10:22:01 10° N
Aurora 2 Rocket 3.9 10:21:33 10° NNW 10:23:04 13° N 10:24:37 10° NE
CZ-2D R/B 3.5 10:28:03 10° SSE 10:31:50 47° ENE 10:35:32 10° N
Cosmos 1850 Rocket 4.4 10:29:21 10° N 10:34:18 39° ENE 10:39:12 10° SE
SWIFT 2.1 10:31:17 10° WNW 10:34:30 46° NNE 10:36:28 20° ENE
USA 305 2.0 10:34:32 10° SSW 10:37:21 83° ESE 10:40:05 17° NE
Okean 1-7 3.6 10:34:18 10° SSE 10:37:58 31° E 10:40:48 15° NE
GRACE-FO 1 4.5 10:37:39 10° NNE 10:41:05 56° E 10:44:30 10° S
GRACE-FO 2 4.5 10:38:05 10° NNE 10:41:31 57° E 10:44:57 10° S
Cosmos 1933 Rocket 3.4 10:38:14 10° N 10:42:34 76° E 10:46:53 10° S
Meteor 2-15 Rocket 4.5 10:36:36 10° N 10:42:35 56° E 10:48:31 10° SSE
ATLAS 5 CENTAUR R/B -0.4 10:43:59 10° WNW 10:45:52 48° NNE 10:46:07 44° NE
SL-4 R/B 2.2 10:47:31 10° NNW 10:51:04 38° NE 10:52:02 31° E
CARTOSAT-1 3.6 10:48:55 10° SSE 10:52:57 48° ENE 10:57:00 10° N
ATLAS 2AS CENTAUR RB 4.2 08:50:29 10° WSW 10:54:36 68° S 11:00:40 20° E
Spot 4 Rocket 3.9 10:50:01 10° SSE 10:55:07 82° ENE 11:00:14 10° N
Cosmos 2239 Rocket 4.4 10:51:02 10° N 10:57:14 76° E 11:03:23 10° S
OAO 2 Rocket 3.9 10:54:05 10° NW 10:58:29 34° NNE 10:59:28 31° NE
Meteor 1-24 Rocket 4.2 10:54:28 10° SSE 10:59:20 35° E 11:01:02 29° ENE
Resurs 1-3 4.1 10:55:49 10° S 11:00:02 59° W 11:04:16 10° NNW
ARIANE 6 FM1 Upper Stage 3.4 11:02:56 10° S 11:06:42 35° ESE 11:06:42 35° ESE
Delta 2 Rocket 4.1 11:01:25 10° WNW 11:08:39 76° SSW 11:13:05 21° ESE
Cosmos 1869 Rocket 3.7 11:04:51 10° N 11:09:10 72° W 11:13:27 10° S
YAOGAN 3 4.3 11:05:36 10° SSE 11:09:47 73° ENE 11:13:58 10° N
Ariane H10+ 3.2 11:04:43 10° WSW 11:10:13 27° SSW 11:11:26 20° SSE
Cosmos 2082 Rocket 2.9 11:09:51 10° SSE 11:14:22 32° ESE 11:14:22 32° ESE
Cosmos 1862 Rocket 4.3 11:13:02 10° SSW 11:17:20 52° W 11:21:39 10° N
BlueWalker 3 2.8 11:20:01 10° WSW 11:23:23 39° NW 11:23:38 38° NW
USA 238 DEB 4.0 11:16:39 10° NNW 11:24:38 70° ENE 11:32:51 10° SSE
USA 238 4.0 11:16:46 10° NNW 11:24:45 69° ENE 11:32:58 10° SSE
OAO 3 Rocket 3.7 11:20:29 10° NW 11:24:23 43° N 11:24:23 43° N
GPS 2-17 Rocket1 3.1 11:27:07 10° WNW 11:31:04 63° NW 11:31:04 63° NW
Intelsat 5-3 Rocket 3.6 11:23:08 10° WNW 11:31:41 44° N 11:31:57 44° NNE
Resurs 01 Rocket 2.4 11:35:44 10° S 11:39:57 50° W 11:44:11 10° NNW
CZ-3 Stage 3 4.2 11:35:56 10° WNW 11:41:47 17° NNW 11:43:23 15° NNW
Hubble Space Telescope 3.1 11:42:41 10° SSW 11:43:40 15° SSW 11:43:40 15° SSW
GEOS 3 Rocket 4.2 11:53:20 49° S 11:53:20 49° S 11:57:12 10° SSW
